{"data":{"norad_id":61539,"epoch":"2026-09-21T16:15:14.684256Z","epoch_age_seconds":90546,"freshness":"FRESH","line1":"1 61539U 24184H   26264.67725329  .00002056  00000+0  21817-4 0  9999","line2":"2 61539  53.1589 349.8260 0001068  80.0985 280.0153 15.69717743111208","mean_motion":15.69717743,"eccentricity":0.0001068,"inclination_deg":53.1589,"raan_deg":349.826,"arg_perigee_deg":80.0985,"mean_anomaly_deg":280.0153,"bstar":2.1817e-5,"rev_number":11120,"period_min":91.736237703978,"perigee_km":358.98499152659,"apogee_km":360.42419449086,"semimajor_km":6737.8415930087,"source":"CELESTRAK","updated_at":"2026-09-22T09:00:49.365119Z"}}